Regional Weather Roundup
Issued by NWS

Home | Current Version | Previous Version | Graphics & Text | Print | Product List | Glossary On
Versions: 1 2 3 4 5 6 7 8 9 10 11 12 13 14 15 16 17 18 19 20 21 22 23 24 25 26 27 28 29 30 31 32 33 34 35 36 37 38 39 40 41 42 43 44 45 46 47 48 49 50
000
ASUS43 KIND 221109
RWRIN

WEATHER ROUNDUP FOR INDIANA
NATIONAL WEATHER SERVICE INDIANAPOLIS IN
600 AM EST THU FEB 22 2018

NOTE: "FAIR" INDICATES FEW OR NO CLOUDS BELOW 12,000 FEET WITH NO
SIGNIFICANT WEATHER AND/OR OBSTRUCTIONS TO VISIBILITY.

* - STATION DOES NOT REPORT WEATHER SUCH AS PRECIPITATION OR FOG.

+ - STATION NOT QUALITY CONTROLLED BY THE NATIONAL WEATHER SERVICE.
    USE DATA WITH CAUTION...ESPECIALLY DEWPOINT AND RELATIVE
    HUMIDITY OBSERVATIONS.

INZ001>003-010>013-019-020-221200-
NORTHWEST INDIANA

CITY           SKY/WX    TMP DP  RH WIND       PRES   REMARKS
LA PORTE +     CLOUDY    32  29  89 NE8       30.51S WCI  24
MICHIGAN CITY+ CLOUDY    32  30  93 NE5       30.53R WCI  27
MONTICELLO +   CLOUDY    36  32  86 NE10      30.45R WCI  28
RENSSELAER +   CLOUDY    34  30  86 NE13      30.47R WCI  25
VALPARAISO     CLOUDY    33  29  85 NE9       30.49F WCI  25

$$

LMZ046-743>745-221200-
SOUTHERN LAKE MICHIGAN

STATION/POSITION TIME  TEMP    WIND        PRES    WAVE
                       AIR SEA DIR/SP/G            HT
                 (UTC) (F)     (DEG/KT/KT) (MB)    (FT)
BURNS HARBOR     1040   31      50/ 16/ 17 1033.9S
MICHIGAN CITY    1040   31      30/ 12/ 12   N/A

$$

INZ004-005-014>016-021>024-221200-
NORTH CENTRAL INDIANA

CITY           SKY/WX    TMP DP  RH WIND       PRES   REMARKS
GOSHEN         MOCLDY    34  30  85 E13       30.49S WCI  25
LOGANSPORT +   CLOUDY    34  32  93 E13G20    30.44F WCI  25
PERU/GRISSOM   CLOUDY    34  34 100 E14       30.43S WCI  25
ROCHESTER +    CLOUDY    36  32  87 E17       30.46F WCI  25
SOUTH BEND     CLOUDY    32  28  85 NE7       30.51R WCI  26
WARSAW +       CLOUDY    34  30  86 N10G18    30.48R WCI  26

$$

INZ006>009-017-018-025>027-221200-
NORTHEAST INDIANA

CITY           SKY/WX    TMP DP  RH WIND       PRES   REMARKS
AUBURN +       CLOUDY    32  30  93 E12       30.49F WCI  23
FORT WAYNE     FRZ RAIN  33  29  85 E16G28    30.48S WCI  23
HUNTINGTON +   MIX PCPN  32  31  95 E6        30.46F WCI  26
KENDALLVILLE + CLOUDY    32  28  83 E12G18    30.49S WCI  23

$$

INZ028-029-035-036-043>045-051>053-221200-
WEST CENTRAL INDIANA

CITY           SKY/WX    TMP DP  RH WIND       PRES   REMARKS
CRAWFORDSVL +  CLOUDY    35  35 100 NE14G21     N/A  WCI  25
GREENCASTLE +  CLOUDY    36  36 100 E14       30.32F WCI  27
LAFAYETTE      CLOUDY    35  33  92 NE17G25   30.43R WCI  25
TERRE HAUTE    CLOUDY    41  39  93 NE8       30.35R

$$

INZ030>032-037>040-046>048-054>057-064-065-221200-
CENTRAL INDIANA

CITY           SKY/WX    TMP DP  RH WIND       PRES   REMARKS
FISHERS *+     CLOUDY    34  34 100 NE8       30.40R WCI  27
GREENWOOD *+   CLOUDY    37 -49   2 E12G17    30.37S WCI  29
INDIANAPOLIS   LGT RAIN  38  36  92 NE13      30.37R WCI  30
-EAGLE CREEK   LGT RAIN  38  34  85 NE8       30.38R WCI  32
KOKOMO +       MIX PCPN  34  32  92 E17G23    30.44R WCI  23
MARION +       LGT RAIN  33  32  95 E15G22    30.44S WCI  23
MT COMFORT *+  CLOUDY    36  36 100 E15       30.38F WCI  26
SHELBYVILLE    LGT RAIN  41  36  82 E20G28    30.36R
ZIONSVILLE +   LGT RAIN  34  33  96 NE13      30.41R WCI  25

$$

INZ033-034-041-042-049-050-058-059-221200-
EAST CENTRAL INDIANA

CITY           SKY/WX    TMP DP  RH WIND       PRES   REMARKS
MUNCIE         LGT RAIN  36  32  85 E16       30.42S WCI  26
RICHMOND +     LGT RAIN  36  36 100 E16       30.39F WCI  26

$$

INZ060-061-067>069-081>083-085>088-221200-
SOUTHWEST INDIANA

CITY           SKY/WX    TMP DP  RH WIND       PRES   REMARKS
EVANSVILLE     CLOUDY    44  43  96 SE6       30.26R
HUNTINGBURG +  MOCLDY    43  41  93 E18       30.21F
WASHINGTON +   CLOUDY    41  39  93 NE8G22    30.26R

$$

INZ062-063-066-070>080-084-089>092-221200-
SOUTH CENTRAL AND SOUTHEAST INDIANA

CITY           SKY/WX    TMP DP  RH WIND       PRES   REMARKS
BATESVILLE +   CLOUDY    39  39 100 MISG      30.36S
BEDFORD +      LGT RAIN  39  37  93 E14G21    30.29F WCI  31
BLOOMINGTON    CLOUDY    40  38  93 E18G24    30.26F WCI  31
FRENCH LICK *+ CLOUDY    39 N/A N/A E20G25    30.24F WCI  30
MADISON *+     CLOUDY    39  37  93 NE13G22   30.34F WCI  32
NORTH VERNON + DRIZZLE   37  36  93 NE13G21   30.35S WCI  29
SEYMOUR +      RAIN      41  37  87 E8        30.35S

$$




USA.gov is the U.S. government's official web portal to all federal, state and local government web resources and services.